Weather History for KBIH - March, 2014

Change the Weather History Date:

Friday, March 21, 2014

  Actual Average Record
Temperature  
Mean Temperature 53 °F 49 °F  
Max Temperature 71 °F 67 °F 84 °F (2004)
Min Temperature 35 °F 32 °F 20 °F (1999)
Degree Days  
Heating Degree Days 12 16  
Month to date heating degree days 298 369  
Since 1 July heating degree days 3248 3576  
Cooling Degree Days 0 0  
Month to date cooling degree days 0 0  
Year to date cooling degree days 0 0  
Growing Degree Days 3 (Base 50)    
Moisture  
Dew Point 20 °F    
Average Humidity 30    
Maximum Humidity 48    
Minimum Humidity 11    
Precipitation  
Precipitation 0.00 in 0.01 in 0.58 in (1969)
Month to date precipitation T 0.40  
Year to date precipitation 1.91 2.30  
Snow  
Snow 0.00 in 0.10 in T in (2011)
Month to date snowfall 0.0 0.7  
Since 1 July snowfall 0.5 6.6  
Snow Depth 0.00 in    
Sea Level Pressure  
Sea Level Pressure 29.84 in    
Wind  
Wind Speed 8 mph (NW)    
Max Wind Speed 24 mph    
Max Gust Speed 31 mph    
Visibility 10 miles    
Events      
T = Trace of Precipitation, MM = Missing Value Source: NWS Daily Summary

Daily Weather History Graph

Daily Weather History Graph

Search for Another Location

Airport or City:

Trip Planner

Search our weather history database for the weather conditions in past years. The results will help you decide how hot, cold, wet, or windy it might be!

Date:

Astronomy

Mar. 21, 2014 Rise Set
Actual Time 6:55 AM PDT 7:06 PM PDT
Civil Twilight 6:29 AM PDT 7:32 PM PDT
Nautical Twilight 5:58 AM PDT 8:02 PM PDT
Astronomical Twilight 5:27 AM PDT 8:33 PM PDT
Moon No Moon Rise 9:56 AM PDT (3/21)
Length of Visible Light 13h 03m
Length of Day
12h 10m
Waning Gibbous, 74% of the Moon is Illuminated
Mar 21
Waning Gibbous
Mar 23
Last Quarter
Mar 30
New
Apr 7
First Quarter
Apr 15
Full

Hourly Weather History & Observations

Time (PDT) Temp. Windchill Dew Point Humidity Pressure Visibility Wind Dir Wind Speed Gust Speed Precip Events Conditions
12:56 AM 45.0 °F 42.6 °F 17.1 °F 33% 29.88 in 10.0 mi NW 4.6 mph - N/A   Clear
1:56 AM 43.0 °F 39.5 °F 17.1 °F 35% 29.89 in 10.0 mi NNW 5.8 mph - N/A   Clear
2:56 AM 39.9 °F 35.1 °F 17.1 °F 40% 29.88 in 10.0 mi WNW 6.9 mph - N/A   Scattered Clouds
3:56 AM 37.9 °F 31.5 °F 17.1 °F 43% 29.87 in 10.0 mi NNW 9.2 mph - N/A   Partly Cloudy
4:56 AM 37.9 °F 32.1 °F 17.1 °F 43% 29.87 in 10.0 mi NNW 8.1 mph - N/A   Clear
5:56 AM 39.0 °F 32.8 °F 17.1 °F 41% 29.87 in 10.0 mi NW 9.2 mph - N/A   Clear
6:56 AM 37.9 °F 35.5 °F 19.9 °F 48% 29.89 in 10.0 mi NE 3.5 mph - N/A   Clear
7:56 AM 44.1 °F 42.5 °F 19.0 °F 37% 29.90 in 10.0 mi North 3.5 mph - N/A   Clear
8:56 AM 54.0 °F - 17.1 °F 23% 29.88 in 10.0 mi NNW 5.8 mph - N/A   Clear
9:56 AM 61.0 °F - 15.1 °F 17% 29.87 in 10.0 mi Calm Calm - N/A   Clear
10:56 AM 64.0 °F - 12.9 °F 14% 29.86 in 10.0 mi Variable 3.5 mph - N/A   Clear
11:56 AM 66.0 °F - 12.9 °F 13% 29.84 in 10.0 mi Variable 4.6 mph - N/A   Clear
12:56 PM 69.1 °F - 12.0 °F 11% 29.82 in 10.0 mi South 6.9 mph - N/A   Clear
1:56 PM 70.0 °F - 12.0 °F 11% 29.78 in 10.0 mi Variable 3.5 mph - N/A   Clear
2:56 PM 71.1 °F - 14.0 °F 11% 29.77 in 10.0 mi SSW 9.2 mph - N/A   Mostly Cloudy
3:56 PM 70.0 °F - 16.0 °F 13% 29.77 in 10.0 mi South 6.9 mph - N/A   Partly Cloudy
4:56 PM 68.0 °F - 21.9 °F 17% 29.77 in 10.0 mi West 15.0 mph - N/A   Overcast
5:56 PM 66.0 °F - 21.0 °F 18% 29.78 in 10.0 mi NNE 12.7 mph - N/A   Overcast
6:56 PM 64.0 °F - 25.0 °F 23% 29.81 in 10.0 mi SSW 5.8 mph - N/A   Overcast
7:56 PM 57.9 °F - 28.0 °F 32% 29.82 in 10.0 mi NW 3.5 mph - N/A   Scattered Clouds
8:56 PM 59.0 °F - 28.0 °F 31% 29.83 in 10.0 mi North 15.0 mph - N/A   Mostly Cloudy
9:56 PM 55.0 °F - 32.0 °F 42% 29.84 in 10.0 mi North 16.1 mph 26.5 mph N/A   Clear
10:56 PM 52.0 °F - 30.0 °F 43% 29.85 in 10.0 mi WNW 4.6 mph - N/A   Clear
11:56 PM 51.1 °F - 30.0 °F 44% 29.86 in 10.0 mi North 11.5 mph - N/A   Clear